Tracking 18785 objects as of 22-July-2017
HD Live streaming from Space Station
objects crossing your sky now
MAYAK may become the brightest orbital object in the night sky!
Where is MAYAK now?
How to spot MAYAK

INS-1A

Track INS-1A now!
10-day predictions


NORAD ID: 41949
Int'l Code: 2017-008B
Perigee: 499.9 km
Apogee: 515.8 km
Inclination: 97.5 °
Period: 94.6 minutes
Semi major axis: 6878 km
RCS: Unknown
Launch date: February 15, 2017
Source: India (IND)
Launch site: SIRHARIKOTA (SRI)
Your satellite tracking list
Your tracking list is empty





NASA's NSSDC Master Catalog

Two Line Element Set (TLE):
1 41949U 17008B   17202.93412070 +.00001535 +00000-0 +70844-4 0  9992
2 41949 097.4918 263.9766 0011543 072.2809 287.9686 15.21711858023817
Source of the keplerian elements: AFSPC